User: anonymous   Login
Location: Nantong Television Tower
(32.0188°N, 120.8512°E)
Time: 00:27:53
(UTC+08:00)
Language:

ATLAS 3B CENTAUR R/B - Orbit

View from above orbital plane
View from above orbital plane
View from above satellite
View from above satellite

Ground track
Ground track

The orbit data is extracted from the following two-line orbital elements,

1 28118U 03057B   16210.42162325  .00060303  00000-0  93570-3 0  9999
2 28118  28.1292 237.3639 3257570 346.1873   6.6958  8.96247339259977
Epoch (UTC): 28 July 2016 10:07:08
Eccentricity: 0.3257570
inclination: 28.1292°
perigee height: 223 km
apogee height: 6601 km
right ascension of ascending node: 237.3639°
argument of perigee: 346.1873°
revolutions per day: 8.96247339
mean anomaly at epoch: 6.6958°
orbit number at epoch: 25997

The dashed part of the orbit path shows where the satellite is in the earth's shadow,  

DLR